CW6293 Weather Reports


time (UTC)temp
C
wind
direction
speed
KPH
gust
KPH
rain 1hr
cm
rain 24hr
cm
rain mn
cm
humidity
%
barometer
mb
20260906223330 22 196 4.8 0.0 0.00 0.00 0.00 27 1018.8
20260906220343 22 213 4.8 0.0 0.00 0.00 0.00 28 1018.6
20260906213335 23 181 6.4 0.0 0.00 0.00 0.00 26 1019.2
20260906203338 22 161 4.8 0.0 0.00 0.00 0.00 30 1020.0
20260906200330 22 129 4.8 0.0 0.00 0.00 0.00 29 1019.9
20260906193324 22 153 6.4 0.0 0.00 0.00 0.00 28 1020.7
20260906190336 21 155 4.8 0.0 0.00 0.00 0.00 30 1021.1
20260906183331 21 171 4.8 0.0 0.00 0.00 0.00 32 1021.9
20260906180322 20 131 4.8 0.0 0.00 0.00 0.00 32 1022.0
20260906173336 19 158 3.2 0.0 0.00 0.00 0.00 35 1022.5
20260906170326 18 137 4.8 0.0 0.00 0.00 0.00 37 1023.2
20260906163337 17 138 3.2 0.0 0.00 0.00 0.00 45 1022.9
20260906160350 16 171 1.6 0.0 0.00 0.00 0.00 53 1023.4
20260906153320 13 173 0.0 0.0 0.00 0.00 0.00 59 1023.5
20260906150332 12 11 0.0 0.0 0.00 0.00 0.00 61 1023.2
20260906143321 10 11 0.0 0.0 0.00 0.00 0.00 68 1023.1
20260906140332 6 360 3.2 0.0 0.00 0.00 0.00 76 1023.0
20260906133324 4 19 6.4 0.0 0.00 0.00 0.00 82 1022.7
20260906130334 2 35 4.8 0.0 0.00 0.00 0.00 84 1023.0
20260906123327 2 28 4.8 0.0 0.00 0.00 0.00 84 1022.9
20260906120319 2 49 3.2 0.0 0.00 0.00 0.00 84 1022.9
20260906113328 3 34 1.6 0.0 0.00 0.00 0.00 80 1022.8
20260906110320 4 13 3.2 0.0 0.00 0.00 0.00 78 1022.9
20260906103334 4 21 4.8 0.0 0.00 0.00 0.00 77 1022.8
20260906100327 4 20 4.8 0.0 0.00 0.00 0.00 79 1022.6
20260906093321 4 17 3.2 0.0 0.00 0.00 0.00 78 1022.6
20260906090335 5 30 4.8 0.0 0.00 0.00 0.00 74 1022.2
20260906083330 6 24 3.2 0.0 0.00 0.00 0.00 73 1022.2
20260906080323 6 23 0.0 0.0 0.00 0.00 0.00 71 1022.4
20260906073357 6 19 8.0 0.0 0.00 0.00 0.00 70 1022.2
20260906070327 7 22 8.0 0.0 0.00 0.00 0.00 66 1022.3
20260906063322 8 17 6.4 0.0 0.00 0.00 0.00 66 1022.3
20260906060356 7 25 6.4 0.0 0.00 0.00 0.00 69 1022.7
20260906053329 7 40 4.8 0.0 0.00 0.00 0.00 71 1022.8
20260906050320 7 15 1.6 0.0 0.00 0.00 0.00 69 1022.8
20260906043333 8 22 3.2 0.0 0.00 0.00 0.00 68 1022.3
20260906040326 10 355 1.6 0.0 0.00 0.00 0.00 60 1022.4
20260906033339 9 130 0.0 0.0 0.00 0.00 0.00 69 1022.1
20260906030333 11 130 0.0 0.0 0.00 0.00 0.00 65 1022.0
20260906023328 13 130 0.0 0.0 0.00 0.00 0.00 55 1021.4
20260906020321 17 130 0.0 0.0 0.00 0.00 0.00 39 1021.5
20260906013335 20 197 0.0 0.0 0.00 0.00 0.00 31 1021.3
20260906010344 21 196 1.6 0.0 0.00 0.00 0.00 31 1021.7
20260906003336 22 198 6.4 0.0 0.00 0.00 0.00 28 1021.4
20260906000349 23 196 3.2 0.0 0.00 0.00 0.00 24 1021.2
20260905233323 23 199 4.8 0.0 0.00 0.00 0.00 22 1021.6
20260905230336 23 177 4.8 0.0 0.00 0.00 0.00 22 1021.5